Location: Gwatt
(46.7204°N, 7.6223°E)
Time: 22:25:11
(UTC+00:00)

Vanguard 2 - Pass Details

Date: 24 January 2021
Orbit: 552 x 2938 km, 32.9° (Epoch: 25 February)

Event Time Altitude Azimuth Distance (km) Brightness Sun altitude
Rises 18:49:04 0° 245° (WSW) 2,895 11.6 -25.1°
Reaches altitude 10° 18:51:51 10° 223° (SW) 2,172 10.4 -25.6°
Maximum altitude 18:55:01 17° 183° (S) 1,998 9.7 -26.2°
Enters shadow 18:56:18 16° 168° (SSE) 2,167 9.7 -26.4°
